Regional Weather Roundup
Issued by NWS

Home | Current Version | Previous Version | Graphics & Text | Print | Product List | Glossary On
Versions: 1 2 3 4 5 6 7 8 9 10 11 12 13 14 15 16 17 18 19 20 21 22 23 24 25 26 27 28 29 30 31 32 33 34 35 36 37 38 39 40 41 42 43 44 45 46 47 48 49 50
000
ASUS43 KTOP 230708
RWRKS

WEATHER ROUNDUP FOR KANSAS
NATIONAL WEATHER SERVICE GOODLAND KS
200 AM CDT WED MAY 23 2018

NOTE:  "FAIR" INDICATES FEW OR NO CLOUDS BELOW 12,000 FEET WITH NO
SIGNIFICANT WEATHER AND/OR OBSTRUCTIONS TO VISIBILITY.

KSZ001>006-013>018-027>032-041>047-230800-
NORTHWEST KANSAS

CITY           SKY/WX    TMP DP  RH WIND       PRES   REMARKS
GOODLAND       MOCLDY    65  57  75 S24G32    29.93S
HAYS           CLEAR     70  61  73 S9        29.97R
HILL CITY      CLEAR     70  61  73 S9G22     29.95S
RUSSELL        CLOUDY    72  64  76 SE13      29.96S
$$

KSZ061>065-074>080-084>089-230800-
SOUTHWEST KANSAS

CITY           SKY/WX    TMP DP  RH WIND       PRES   REMARKS
DODGE CITY     CLEAR     68  57  68 S12       30.00R
ELKHART        CLOUDY    67  58  72 W8        30.06R
GARDEN CITY    CLOUDY    68  58  70 S14       29.99R
GREAT BEND     CLEAR     69  62  78 S10       29.98S
LIBERAL        CLOUDY    68  60  75 S12       30.01R
PRATT          CLEAR     71  62  73 S13G18    29.99F
$$

KSZ066>073-081>083-090>101-230800-
SOUTHEAST KANSAS

CITY           SKY/WX    TMP DP  RH WIND       PRES   REMARKS
CHANUTE        CLEAR     70  68  93 SE3       30.02S
COFFEYVILLE    CLEAR     69  66  90 SE3       30.00F
HUTCHINSON     CLEAR     69  66  90 SE5       29.99S
MEDICINE LODGE   N/A     70  65  84 S8        29.98S
NEWTON         CLEAR     66  65  96 SE9       30.01F
PARSONS        CLEAR     70  67  90 CALM      30.02F
WICHITA INTL   PTCLDY    70  68  93 S7        29.99F
WICHITA JABRA  CLEAR     71  68  90 S6        30.00S
WICHITA MCCONL CLEAR     71  66  84 S7        30.00S
WINFIELD       CLEAR     70  69  97 SE6       30.01F
$$

KSZ007>012-019>026-033>040-048>060-102>105-230800-
NORTHEAST KANSAS

CITY           SKY/WX    TMP DP  RH WIND       PRES   REMARKS
CONCORDIA      CLOUDY    72  64  76 S16       29.97F
EMPORIA        CLEAR     67  64  90 CALM      30.02S
LAWRENCE       CLEAR     68  66  93 E5        30.02S
MANHATTAN      PTCLDY    69  65  86 CALM      29.99S
MARYSVILLE     CLEAR     70  64  83 SE6       30.00S
OLATHE IND     CLEAR     70  65  84 SE5       30.03F
OLATHE EXE     CLEAR     69  65  86 SE3       30.03F
SALINA         CLOUDY    72  67  84 SE10      29.98S
TOPEKA BILLARD CLEAR     69  66  90 CALM      30.01S
TOPEKA FORBES  CLEAR     70  67  90 S6        30.02S
$$



USA.gov is the U.S. government's official web portal to all federal, state and local government web resources and services.